This demonstration page uses our WeatherBlox Daily Observations layout. Learn more.

Left ArrowRight Arrow

39.12711, -84.51439

Hourly Observations for June 4, 2018

Temp ( °F °C ) Dew Point ( °F °C ) Humidity (%) Winds ( mph kmh ) Pressure ( in mb ) Visibility ( mi km ) Precip ( " mm )
12:53 am 00:53 Clear 68 20 53 11.7 59 59 SW 5 7 29.91 1013 10 16 N/A
1:53 am 01:53 Clear 66 18.9 52 11.1 61 61 W 7 11 29.92 1013 10 16 N/A
2:53 am 02:53 Clear 66 18.9 52 11.1 61 61 NW 8 13 29.93 1014 10 16 N/A
3:53 am 03:53 Clear 62 16.7 53 11.7 73 73 N N/A 29.95 1014 10 16 N/A
4:53 am 04:53 Clear 60 15.6 54 12.2 80 80 NNW 5 7 29.96 1015 10 16 N/A
5:53 am 05:53 Clear 61 16.1 53 11.7 75 75 WNW 3 6 29.97 1015 10 16 N/A
6:53 am 06:53 Sunny 58 14.4 55 12.8 90 90 N N/A 29.97 1015 10 16 N/A
7:53 am 07:53 Sunny 65 18.3 54 12.2 68 68 WNW 5 7 29.98 1015 10 16 N/A
8:53 am 08:53 Sunny 67 19.4 55 12.8 66 66 VRB 7 11 29.99 1016 10 16 N/A
9:53 am 09:53 Mostly Sunny 69 20.6 53 11.7 57 57 WNW 12 19 30.00 1016 10 16 N/A
10:53 am 10:53 Mostly Sunny 70 21.1 54 12.2 57 57 WNW 10 17 30.00 1016 10 16 N/A
11:53 am 11:53 Mostly Sunny 72 22.2 54 12.2 53 53 NW 9 15 29.99 1016 10 16 N/A
12:53 pm 12:53 Sunny 74 23.3 55 12.8 52 52 W 13 20 29.96 1015 10 16 N/A
1:53 pm 13:53 Sunny 74 23.3 52 11.1 46 46 VRB 7 11 29.96 1014 10 16 N/A
2:53 pm 14:53 Mostly Sunny 75 23.9 51 10.6 43 43 NNW 10 17 29.95 1014 10 16 N/A
3:53 pm 15:53 Sunny 77 25 52 11.1 42 42 NW 10 17 29.94 1014 10 16 N/A
4:53 pm 16:53 Sunny 76 24.4 51 10.6 42 42 NW 13 20 29.93 1014 10 16 N/A
5:53 pm 17:53 Sunny 77 25 50 10 39 39 NW 8 13 29.93 1014 10 16 N/A
6:53 pm 18:53 Sunny 76 24.4 48 8.9 37 37 NW 9 15 29.92 1013 10 16 N/A
7:53 pm 19:53 Sunny 74 23.3 47 8.3 38 38 NW 8 13 29.92 1013 10 16 N/A
8:53 pm 20:53 Sunny 71 21.7 48 8.9 44 44 NW 6 9 29.93 1013 10 16 N/A
9:53 pm 21:53 Clear 70 21.1 48 8.9 46 46 NW 6 9 29.92 1013 10 16 N/A
10:53 pm 22:53 Clear 59 15 54 12.2 83 83 N N/A 29.94 1014 10 16 N/A
11:53 pm 23:53 Clear 57 13.9 54 12.2 90 90 N N/A 29.93 1014 10 16 N/A

Powered by AerisWeather